Regional Weather Roundup
Issued by NWS

Home | Current Version | Previous Version | Graphics & Text | Print | Product List | Glossary On
Versions: 1 2 3 4 5 6 7 8 9 10 11 12 13 14 15 16 17 18 19 20 21 22 23 24 25 26 27 28 29 30 31 32 33 34 35 36 37 38 39 40 41 42 43 44 45 46 47 48 49 50
812
ASUS44 KMEG 262210
RWRTN
TENNESSEE HOURLY STATE WEATHER ROUNDUP
NATIONAL WEATHER SERVICE MEMPHIS TN
500 PM CDT MON SEP 26 2016

TNZ002-004-019-021-049-052-054-088>092-262300-
WEST TENNESSEE

CITY           SKY/WX    TMP DP  RH WIND       PRES   REMARKS
MEMPHIS INTL   PTSUNNY   75  59  57 N8        30.06F
NWS MEMPHIS      N/A     73 N/A N/A MISG        N/A
JACKSON        PTSUNNY  N/A N/A N/A N9        30.07F
DYERSBURG      MOSUNNY  N/A N/A N/A MISG        N/A
UNION CITY     SUNNY     72  54  53 VRB3      30.08F
PARIS          SUNNY     66  52  59 CALM      30.09F
HUNTINGDON     SUNNY     68  55  64 N6        30.07F
LEXINGTON      MOSUNNY   66  61  82 N6        30.06F
$$

TNZ008-025-027-028-033-062-065-066-262300-
NORTH MIDDLE TENNESSEE

CITY           SKY/WX    TMP DP  RH WIND       PRES   REMARKS
NASHVILLE      CLOUDY    66  61  84 NW8       30.07R
PORTLAND       SUNNY     66  59  77 N6G14     30.07S
CLARKSVILLE    PTSUNNY   68  54  60 N8        30.08F
SMYRNA         CLOUDY    66  64  93 N10       30.06F
COOKEVILLE     SUNNY     75  66  73 N3        30.03S
GALLATIN       PTSUNNY   66  61  82 VRB7      30.08F
CROSSVILLE     CLOUDY    74  62  66 CALM      30.06F
$$

TNZ061-075-076-078-094-096-097-262300-
SOUTH MIDDLE TENNESSEE

CITY           SKY/WX    TMP DP  RH WIND       PRES   REMARKS
FAYETTEVILLE   SUNNY     79  66  65 N7        30.02S
TULLAHOMA      SUNNY     75  63  64 N7        30.04F
WINCHESTER     SUNNY     81  66  61 N3        30.03R
MCMINNVILLE    SUNNY     75  66  73 N6        30.05R
COLUMBIA       CLOUDY   N/A N/A N/A N7        30.05S
SHELBYVILLE    SUNNY     75  66  73 N9        30.04F
$$

TNZ017-018-042-046-047-262300-
NORTHEAST TENNESSEE

CITY           SKY/WX    TMP DP  RH WIND       PRES   REMARKS
TRI CITIES     TSTM      70  67  90 SW15      30.05R
ELIZABETHTON   HVY RAIN  68  64  88 NW9G28    30.08R VSB 1/2
$$

TNZ012-013-036-069-073-074-262300-
CENTRAL EAST TENNESSEE

CITY           SKY/WX    TMP DP  RH WIND       PRES   REMARKS
KNOXVILLE      CLOUDY    73  67  81 S9        30.02S
OAK RIDGE      PTSUNNY   77  68  73 S8        30.04R
DOWNTOWN KNOXV SUNNY     73  68  83 SW5       30.02S
GATLINBURG     MOSUNNY   72  64  78 SW5       30.03S
MORRISTOWN     MOSUNNY   70  68  94 S8        30.02S
JACKSBORO      PTSUNNY   79  66  65 CALM      30.05R
$$

TNZ083-085-099-262300-
SOUTHEAST TENNESSEE

CITY           SKY/WX    TMP DP  RH WIND       PRES   REMARKS
CHATTANOOGA    CLOUDY    76  68  76 NE8       30.04R
$$

SKY/WX REPORTED AS FAIR MEANS FEW OR NO CLOUDS BELOW
12 THOUSAND FEET.





USA.gov is the U.S. government's official web portal to all federal, state and local government web resources and services.